This demonstration page uses our WeatherBlox Daily Observations layout. Learn more.

Left ArrowRight Arrow

Hourly Observations for June 21, 2015

Temp ( °F °C ) Dew Point ( °F °C ) Humidity (%) Winds ( mph kmh ) Pressure ( in mb ) Visibility ( mi km ) Precip ( " mm )
12:53 am 00:53 Clear 55 12.8 41 5 59 59 Calm 29.83 1010 10 16 0.00 0.00
1:53 am 01:53 Clear 52 11.1 41 5 66 66 W 3 6 29.82 1010 10 16 0.00 0.00
2:53 am 02:53 Clear 53 11.7 40 4.4 61 61 Calm 29.81 1010 10 16 0.00 0.00
3:53 am 03:53 Clear 50 10 40 4.4 68 68 undefined N/A 29.80 1009 10 16 0.00 0.00
4:53 am 04:53 Clear 47 8.3 39 3.9 74 74 W 3 6 29.79 1009 10 16 0.00 0.00
5:53 am 05:53 Sunny 45 7.2 39 3.9 80 80 W 7 11 29.80 1009 10 16 0.00 0.00
6:53 am 06:53 Sunny 51 10.6 39 3.9 64 64 W 8 13 29.83 1010 10 16 0.00 0.00
7:53 am 07:53 Sunny 56 13.3 43 6.1 62 62 WNW 12 19 29.83 1010 10 16 0.00 0.00
8:53 am 08:53 Sunny 59 15 45 7.2 60 60 NW 8 13 29.83 1010 10 16 0.00 0.00
9:53 am 09:53 Sunny 65 18.3 45 7.2 49 49 VRB 3 6 29.83 1010 10 16 0.00 0.00
10:53 am 10:53 Sunny 69 20.6 45 7.2 42 42 VRB 6 9 29.82 1010 10 16 0.00 0.00
11:53 am 11:53 Sunny 71 21.7 46 7.8 41 41 W 6 9 29.82 1010 10 16 0.00 0.00
12:53 pm 12:53 Sunny 75 23.9 43 6.1 32 32 WNW 9 15 29.80 1009 10 16 0.00 0.00
1:53 pm 13:53 Sunny 76 24.4 39 3.9 26 26 W 10 17 29.79 1009 10 16 0.00 0.00
2:53 pm 14:53 Sunny 78 25.6 39 3.9 25 25 NNW 5 7 29.77 1008 10 16 0.00 0.00
3:53 pm 15:53 Sunny 76 24.4 39 3.9 26 26 N 13 20 29.79 1009 10 16 0.00 0.00
4:53 pm 16:53 Sunny 78 25.6 39 3.9 25 25 N 10 17 29.79 1009 10 16 0.00 0.00
5:53 pm 17:53 Partly Cloudy 77 25 37 2.8 24 24 N 14 22 29.81 1010 10 16 0.00 0.00
6:53 pm 18:53 Mostly Sunny 72 22.2 37 2.8 28 28 NNW 21 33 29.84 1011 10 16 0.00 0.00
7:53 pm 19:53 Mostly Sunny 70 21.1 38 3.3 31 31 NNW 12 19 29.86 1011 10 16 0.00 0.00
8:53 pm 20:53 Cloudy with Light Rain 67 19.4 41 5 39 39 NW 21 33 29.91 1013 10 16 0.00 0.03
9:53 pm 21:53 Partly Cloudy 63 17.2 41 5 45 45 N 9 15 29.92 1013 10 16 0.00 0.03
10:53 pm 22:53 Clear 58 14.4 43 6.1 58 58 NE 5 7 29.95 1014 10 16 0.00 0.00
11:53 pm 23:53 Clear 54 12.2 44 6.7 69 69 Calm 29.96 1015 10 16 0.00 0.00

Powered by AerisWeather